Flag for Jamaica Weather past 2 weeks in May Pen, Jamaica

Now
84 °F

Passing clouds.


Feels Like: 92 °F
Forecast: 71 / 90 °F
Wind: 6 mph from Northwest

Location: Kingston / Norman Manley

Current Time: Jul 30, 2014 at 10:12:45 AM

Latest Report: Jul 30, 2014 at 9:00 AM


Visibility: N/A

Pressure: 29.98 "Hg

Humidity: 74%

Dew point: 75 °F

Location of May PenLocation

Historic Weather in May Pen — Graph

°F

May Pen temperature yesterday

Maximum temperature yesterday: 90 °F (at 1:00 PM)
Minimum temperature yesterday: 82 °F (at 12:00 AM)
Average temperature yesterday: 85 °F

Past Weeks' High & Low Weather Summary

 TemperatureHumidityPressure
High93 °F (Jul 24, 5:00 PM)84% (Jul 16, 7:00 AM)30.04 "Hg (Jul 16, 7:00 AM)
Low81 °F (Jul 16, 5:00 AM)47% (Jul 24, 5:00 PM)29.83 "Hg (Jul 24, 4:00 PM)
Average86 °F70%29.97 "Hg
* Reported Jul 15 9:00 AM — Jul 30 9:00 AM, May Pen, Weather by CustomWeather, © 2014

Note: Actual official high and low records may vary slightly from our data, if they occured in-between our weather recording intervals... More about our weather records

Advertising

May Pen weather history for previous 24 hours

 ConditionsComfort  
Time TempWeatherWind HumidityBarometerVisibility
9:00 AM
Jul 30
84 °FPassing clouds.6 mph74%29.98 "HgN/A
8:00 AM84 °FPassing clouds.7 mph74%29.98 "HgN/A
7:00 AM82 °FPassing clouds.2 mph79%29.95 "HgN/A
6:00 AM81 °FPassing clouds.6 mph84%29.95 "HgN/A
5:00 AM81 °FPassing clouds.6 mph84%29.95 "HgN/A
4:00 AM81 °FPassing clouds.6 mph84%29.95 "HgN/A
3:00 AM82 °FPassing clouds.5 mph79%29.98 "HgN/A
2:00 AM82 °FThundershowers. Passing clouds.7 mph74%29.98 "HgN/A
1:00 AM82 °FPassing clouds.5 mph79%30.01 "HgN/A
12:00 AM82 °FThundershowers. Passing clouds.3 mph84%30.01 "HgN/A
11:00 PM
Jul 29
82 °FThundershowers. Passing clouds.9 mph84%30.04 "HgN/A
10:00 PM84 °FPassing clouds.7 mph79%30.01 "HgN/A
9:00 PM84 °FPassing clouds.8 mph74%29.98 "HgN/A
8:00 PM84 °FPassing clouds.12 mph74%29.98 "HgN/A
7:00 PM86 °FPassing clouds.16 mph79%29.95 "HgN/A
6:00 PM86 °FScattered clouds.16 mph75%29.95 "HgN/A
5:00 PM86 °FScattered clouds.17 mph75%29.95 "HgN/A
4:00 PM88 °FPartly sunny.20 mph70%29.95 "HgN/A
3:00 PM86 °FPartly sunny.18 mph75%29.95 "HgN/A
2:00 PM88 °FScattered clouds.18 mph75%29.95 "HgN/A
1:00 PM90 °FScattered clouds.16 mph71%29.98 "HgN/A
12:00 PM86 °FScattered clouds.10 mph75%29.98 "HgN/A
11:00 AM88 °FScattered clouds.12 mph75%30.01 "HgN/A
10:00 AM86 °FScattered clouds.8 mph75%30.01 "HgN/A
Weather by CustomWeather, © 2014

See weather overviewHow to use our weather pages